Timestamp,Temp,Chill,HIndex,Humid,Dewpt,Wind,HiWind,WindDir,Rain,RainRate,Barom,Solar,ET,UV,InsideTemp,InsideHumid
2016-02-22 00:00:00,43.7,40.164642296838,43.7,82,38.5714037618845,6,12,270,0,0,29.385,0,0.001,0,64,44
2016-02-22 00:05:00,43.5,39.3559040112074,43.5,81,38.0631519327818,7,15,270,0,0,29.384,0,0,0,64,42
2016-02-22 00:10:00,43.3,40.3484489519471,43.3,81,37.8680699972272,5,14,247.5,0,0,29.386,0,0,0,64,42
2016-02-22 00:15:00,43.2,39.5691773130787,43.2,81,37.7705282052773,6,21,292.5,0,0,29.385,0,0,0,64,42
2016-02-22 00:20:00,43.1,40.8996353229168,43.1,80,37.3572357223201,4,10,292.5,0,0,29.389,0,0,0,63.8,42
2016-02-22 00:25:00,43.1,40.8996353229168,43.1,80,37.3572357223201,4,10,270,0,0,29.387,0,0,0,64,43
2016-02-22 00:30:00,43.1,39.4500843163268,43.1,80,37.3572357223201,6,12,292.5,0,0,29.385,0,0,0,64,42
2016-02-22 00:35:00,42.9,38.632814563062,42.9,79,36.8434666946138,7,19,292.5,0,0,29.389,0,0,0,64,42
2016-02-22 00:40:00,42.9,39.211898322823,42.9,78,36.5209151818388,6,11,292.5,0,0,29.394,0,0,0,64,42
2016-02-22 00:45:00,42.9,39.878625425447,42.9,78,36.5209151818388,5,11,270,0,0,29.395,0,0,0,64,41
2016-02-22 00:50:00,42.8,40.5530869300202,42.8,78,36.4238015007552,4,9,292.5,0,0,29.395,0,0,0,64,42
2016-02-22 00:55:00,42.8,40.5530869300202,42.8,78,36.4238015007552,4,10,292.5,0,0,29.394,0,0,0,64.1,43
2016-02-22 01:00:00,42.8,40.5530869300202,42.8,78,36.4238015007552,4,14,292.5,0,0,29.393,0,0.001,0,64.3,43
2016-02-22 01:05:00,42.7,40.4375707990546,42.7,78,36.3266871760692,4,10,270,0,0,29.394,0,0,0,64.3,42
2016-02-22 01:10:00,42.7,39.6437136621969,42.7,78,36.3266871760692,5,12,270,0,0,29.399,0,0,0,64.3,41
2016-02-22 01:15:00,42.6,39.5262577805719,42.6,78,36.2295722077745,5,12,270,0,0,29.404,0,0,0,64.3,41
2016-02-22 01:20:00,42.6,37.7541882077134,42.6,78,36.2295722077745,8,13,270,0,0,29.406,0,0,0,64.3,41
2016-02-22 01:25:00,42.6,39.5262577805719,42.6,78,36.2295722077745,5,14,247.5,0,0,29.409,0,0,0,64.3,42
2016-02-22 01:30:00,42.5,38.7355263358155,42.5,77,35.8068185584835,6,14,315,0,0,29.406,0,0,0,64.3,41
2016-02-22 01:35:00,42.4,39.2913460173218,42.4,77,35.7098486447574,5,12,270,0,0,29.405,0,0,0,64.3,41
2016-02-22 01:40:00,42.3,39.1738901356968,42.3,77,35.6128780555073,5,13,247.5,0,0,29.405,0,0,0,64.1,41
2016-02-22 01:45:00,42.3,39.9755062751924,42.3,77,35.6128780555073,4,10,270,0,0,29.406,0,0,0,64.1,42
2016-02-22 01:50:00,42.2,39.0564342540718,42.2,77,35.5159067907261,5,11,247.5,0,0,29.408,0,0,0,64.3,41
2016-02-22 01:55:00,42.2,39.0564342540718,42.2,77,35.5159067907261,5,12,247.5,0,0,29.409,0,0,0,64.3,41
2016-02-22 02:00:00,42.2,42.2,42.2,78,35.8411058983804,3,9,180,0,0,29.411,0,0.001,0,64.3,41
2016-02-22 02:05:00,42.1,38.259154348808,42.1,78,35.7439877119461,6,14,270,0,0,29.412,0,0,0,64.3,41
2016-02-22 02:10:00,42.1,38.9389783724468,42.1,77,35.4189348504068,5,13,292.5,0,0,29.411,0,0,0,64.3,40
2016-02-22 02:15:00,42,38.8215224908217,42,78,35.6468688818646,5,11,270,0,0,29.41,0,0,0,64.1,40
2016-02-22 02:20:00,42,38.8215224908217,42,77,35.3219622345423,5,13,270,0,0,29.409,0,0,0,64.1,39
2016-02-22 02:25:00,42,42,42,77,35.3219622345423,3,13,292.5,0,0,29.408,0,0,0,64.1,41
2016-02-22 02:30:00,41.9,38.7040666091967,41.9,77,35.2249889431255,5,18,270,0,0,29.411,0,0,0,64.1,41
2016-02-22 02:35:00,41.8,38.5866107275717,41.8,77,35.1280149761494,5,12,270,0,0,29.408,0,0,0,64.3,40
2016-02-22 02:40:00,41.8,37.9018753585524,41.8,77,35.1280149761494,6,14,292.5,0,0,29.407,0,0,0,64.3,40
2016-02-22 02:45:00,41.8,41.8,41.8,77,35.1280149761494,3,10,270,0,0,29.407,0,0,0,64.3,41
2016-02-22 02:50:00,41.7,38.4691548459466,41.7,76,34.7028281326058,5,12,292.5,0,0,29.411,0,0,0,64.3,41
2016-02-22 02:55:00,41.6,37.6636893650487,41.6,76,34.6060004749493,6,12,270,0,0,29.408,0,0,0,64.3,40
2016-02-22 03:00:00,41.6,37.6636893650487,41.6,76,34.6060004749493,6,12,315,0,0,29.41,0,0.001,0,64.1,40
2016-02-22 03:05:00,41.6,36.5364352903486,41.6,76,34.6060004749493,8,19,270,0,0,29.41,0,0,0,64.1,40
2016-02-22 03:10:00,41.6,38.3516989643216,41.6,76,34.6060004749493,5,10,270,0,0,29.416,0,0,0,64,39
2016-02-22 03:15:00,41.6,38.3516989643216,41.6,75,34.2740998257048,5,9,270,0,0,29.416,0,0,0,63.8,41
2016-02-22 03:20:00,41.6,38.3516989643216,41.6,75,34.2740998257048,5,12,292.5,0,0,29.417,0,0,0,63.8,40
2016-02-22 03:25:00,41.5,36.4146599986121,41.5,75,34.1774207004195,8,23,315,0,0,29.42,0,0,0,64,40
2016-02-22 03:30:00,41.5,36.4146599986121,41.5,74,33.8417375195959,8,18,270,0,0,29.418,0,0,0,64,40
2016-02-22 03:35:00,41.4,37.4255033715449,41.4,74,33.7452085130534,6,13,270,0,0,29.417,0,0,0,63.8,40
2016-02-22 03:40:00,41.3,36.704576034674,41.3,74,33.6486787335752,7,20,270,0,0,29.416,0,0,0,63.8,40
2016-02-22 03:45:00,41.2,37.1873173780412,41.2,73,33.2128896810623,6,13,292.5,0,0,29.414,0,0,0,63.8,39
2016-02-22 03:50:00,41.1,36.4635462186256,41.1,73,33.1165108081053,7,22,292.5,0,0,29.415,0,0,0,63.6,39
2016-02-22 03:55:00,41,36.3430313106013,41,73,33.0201311291705,7,16,270,0,0,29.419,0,0,0,63.6,39
2016-02-22 04:00:00,41,36.9491313845374,41,73,33.0201311291705,6,12,292.5,0,0,29.421,0,0.001,0,63.5,39
2016-02-22 04:05:00,40.8,35.5622329564568,40.8,73,32.8273693533275,8,13,270,0,0,29.419,0,0,0,63.5,39
2016-02-22 04:10:00,40.7,37.2945960296964,40.7,73,32.7309872563989,5,13,225,0,0,29.422,0,0,0,63.5,40
2016-02-22 04:15:00,40.6,38.0117320487782,40.6,73,32.6346043534522,4,10,292.5,0,0,29.42,0,0,0,63.5,40
2016-02-22 04:20:00,40.5,37.0596842664463,40.5,73,32.5382206444773,5,14,270,0,0,29.414,0,0,0,63.5,40
2016-02-22 04:25:00,40.4,40.4,40.4,73,32.4418361294639,3,12,180,0,0,29.416,0,0,0,63.6,40
2016-02-22 04:30:00,40.4,37.7806997868471,40.4,73,32.4418361294639,4,11,247.5,0,0,29.412,0,0,0,63.6,40
2016-02-22 04:35:00,40.4,40.4,40.4,73,32.4418361294639,2,8,157.5,0,0,29.415,0,0,0,63.8,40
2016-02-22 04:40:00,40.3,40.3,40.3,74,32.6833384252797,2,8,315,0,0,29.417,0,0,0,63.8,41
2016-02-22 04:45:00,40.2,40.2,40.2,74,32.5868001428947,2,8,225,0,0,29.417,0,0,0,64,39
2016-02-22 04:50:00,40.1,40.1,40.1,74,32.4902610874624,1,8,202.5,0,0,29.418,0,0,0,64.1,38
2016-02-22 04:55:00,40.1,40.1,40.1,74,32.4902610874624,1,6,22.5,0,0,29.418,0,0,0,64.1,40
2016-02-22 05:00:00,40,40,40,74,32.3937212589735,3,9,225,0,0,29.416,0,0.001,0,64.3,41
2016-02-22 05:05:00,40,40,40,74,32.3937212589735,3,9,247.5,0,0,29.415,0,0,0,64.3,41
2016-02-22 05:10:00,40,40,40,75,32.7271449921227,3,9,270,0,0,29.422,0,0,0,64.5,40
2016-02-22 05:15:00,39.9,37.2031191320194,39.9,75,32.630454022583,4,10,270,0,0,29.425,0,0,0,64.6,39
2016-02-22 05:20:00,39.8,39.8,39.8,75,32.5337623127052,3,7,225,0,0,29.422,0,0,0,64.5,40
2016-02-22 05:25:00,39.8,36.2374930950711,39.8,75,32.5337623127052,5,10,225,0,0,29.419,0,0,0,64.6,41
2016-02-22 05:30:00,39.8,36.2374930950711,39.8,75,32.5337623127052,5,11,270,0,0,29.418,0,0,0,64.6,39
2016-02-22 05:35:00,39.7,36.1200372134461,39.7,75,32.4370698624808,5,14,225,0,0,29.415,0,0,0,64.6,40
2016-02-22 05:40:00,39.6,35.2818294300112,39.6,75,32.3403766719011,6,14,225,0,0,29.409,0,0,0,64.6,40
2016-02-22 05:45:00,39.5,36.7410546081572,39.5,75,32.2436827409578,4,11,225,0,0,29.412,0,0,0,64.6,39
2016-02-22 05:50:00,39.5,35.885125450196,39.5,75,32.2436827409578,5,10,270,0,0,29.412,0,0,0,64.6,39
2016-02-22 05:55:00,39.4,36.6255384771917,39.4,75,32.1469880696423,4,12,270,0,0,29.417,0,0,0,64.3,38
2016-02-22 06:00:00,39.3,39.3,39.3,75,32.0502926579462,3,12,202.5,0,0,29.422,0,0.001,0,64.3,40
2016-02-22 06:05:00,39.3,34.9245504397556,39.3,76,32.378768994127,6,15,247.5,0,0,29.421,0,0,0,64.3,40
2016-02-22 06:10:00,39.3,35.650213686946,39.3,76,32.378768994127,5,15,202.5,0,0,29.417,0,0,0,64.1,36
2016-02-22 06:15:00,39.3,35.650213686946,39.3,76,32.378768994127,5,11,247.5,0,0,29.413,0,0,0,63.6,38
2016-02-22 06:20:00,39.3,34.9245504397556,39.3,76,32.378768994127,6,15,202.5,0,0,29.409,0,0,0,63,37
2016-02-22 06:25:00,39.3,33.7356035804096,39.3,76,32.378768994127,8,20,202.5,0,0,29.405,0,0,0,62.7,38
2016-02-22 06:30:00,39.3,34.9245504397556,39.3,75,32.0502926579462,6,15,225,0,0,29.409,0,0,0,62.4,37
2016-02-22 06:35:00,39.2,36.3945062152606,39.2,76,32.2819243483272,4,16,180,0,0,29.412,0,0,0,61.9,37
2016-02-22 06:40:00,39.2,36.3945062152606,39.2,76,32.2819243483272,4,11,225,0,0,29.415,0,0,0,61.4,37
2016-02-22 06:45:00,39.1,34.6863644462518,39.1,76,32.1850789945911,6,13,202.5,0,0,29.415,0,0,0,61,39
2016-02-22 06:50:00,39,36.1634739533295,39,76,32.088232932911,4,14,225,0,0,29.412,0,0,0,61,39
2016-02-22 06:55:00,39,35.2978460420709,39,76,32.088232932911,5,15,225,0,0,29.416,0,0,0,61,38
2016-02-22 07:00:00,39,35.2978460420709,39,75,31.7602019804886,5,15,225,0,0,29.414,0,0.001,0,60.7,38
2016-02-22 07:05:00,38.9,33.8122182420922,38.9,75,31.6635036071847,7,15,225,0,0,29.412,0,0,0,60.5,40
2016-02-22 07:10:00,39,35.2978460420709,39,75,31.7602019804886,5,12,225,0,0,29.409,0,0,0,60.5,39
2016-02-22 07:15:00,38.9,36.047957822364,38.9,75,31.6635036071847,4,16,180,0,0,29.415,0,0,0,60.3,38
2016-02-22 07:20:00,38.9,36.047957822364,38.9,75,31.6635036071847,4,12,247.5,0,0,29.418,2,0,0,60,38
2016-02-22 07:25:00,38.9,36.047957822364,38.9,75,31.6635036071847,4,11,270,0,0,29.418,6,0,0,59.9,38
2016-02-22 07:30:00,38.9,38.9,38.9,75,31.6635036071847,3,9,225,0,0,29.427,8,0,0,59.6,39
2016-02-22 07:35:00,38.9,35.1803901604459,38.9,75,31.6635036071847,5,12,247.5,0,0,29.429,11,0,0,59.6,39
2016-02-22 07:40:00,38.9,38.9,38.9,75,31.6635036071847,2,10,202.5,0,0,29.427,12,0,0,59.7,41
2016-02-22 07:45:00,38.9,38.9,38.9,75,31.6635036071847,1,6,247.5,0,0,29.435,12,0,0,59.7,39
2016-02-22 07:50:00,38.9,38.9,38.9,75,31.6635036071847,2,8,225,0,0,29.435,14,0,0,59.7,38
2016-02-22 07:55:00,38.8,38.8,38.8,75,31.5668044934575,3,8,270,0,0,29.438,16,0,0,59.7,40
2016-02-22 08:00:00,38.8,38.8,38.8,75,31.5668044934575,1,6,270,0,0,29.435,18,0.001,0,59.7,39
2016-02-22 08:05:00,38.9,38.9,38.9,75,31.6635036071847,1,5,270,0,0,29.439,19,0,0,59.7,39
2016-02-22 08:10:00,38.8,38.8,38.8,75,31.5668044934575,2,6,270,0,0,29.437,23,0,0,59.9,41
2016-02-22 08:15:00,38.9,35.1803901604459,38.9,75,31.6635036071847,5,10,270,0,0,29.437,38,0,0,60.5,41
2016-02-22 08:20:00,39.3,39.3,39.3,74,31.7179208131891,2,6,270,0,0,29.445,46,0,0.1,61.1,43
2016-02-22 08:25:00,39.8,39.8,39.8,74,32.2006392827892,2,12,247.5,0,0,29.447,51,0,0,61.9,43
2016-02-22 08:30:00,39.7,39.7,39.7,73,31.7671219544469,2,8,292.5,0,0,29.442,62,0,0.2,62.2,42
2016-02-22 08:35:00,40.1,40.1,40.1,73,32.1526777480926,3,9,225,0,0,29.442,100,0,0.3,62.7,41
2016-02-22 08:40:00,40.4,36.9422283848213,40.4,72,32.0996773861117,5,15,247.5,0,0,29.442,112,0,0.5,63,39
2016-02-22 08:45:00,40.7,37.2945960296964,40.7,72,32.3883665518675,5,11,292.5,0,0,29.445,123,0,0.5,63.2,41
2016-02-22 08:50:00,41,41,41,72,32.6770481636655,3,13,270,0,0,29.445,133,0,0.6,63.3,40
2016-02-22 08:55:00,41.3,41.3,41.3,71,32.6179328540249,3,14,180,0,0,29.445,149,0,0.6,63.6,40
2016-02-22 09:00:00,41.5,39.0513772274681,41.5,70,32.4576031828615,4,10,292.5,0,0,29.445,168,0.002,0.7,64,39
2016-02-22 09:05:00,41.6,39.1668933584336,41.6,70,32.5535104845359,4,15,292.5,0,0,29.445,165,0,0.7,64.1,38
2016-02-22 09:10:00,42.1,39.7444740132614,42.1,70,33.0330333920579,4,10,247.5,0,0,29.449,188,0,0.8,64.3,40
2016-02-22 09:15:00,42.2,42.2,42.2,70,33.1289352534823,3,9,315,0,0,29.446,198,0,0.8,64.6,39
2016-02-22 09:20:00,42.5,39.4088018989469,42.5,69,33.0580931954727,5,14,202.5,0,0,29.445,212,0,0.9,64.9,39
2016-02-22 09:25:00,42.6,40.3220546680891,42.6,69,33.1538312863175,4,13,292.5,0,0,29.447,223,0,0.9,65.1,39
2016-02-22 09:30:00,43,43,43,69,33.5367742415963,3,11,202.5,0,0,29.446,245,0,1,65.6,40
2016-02-22 09:35:00,42.8,39.0928053260712,42.8,70,33.7043273825491,6,15,225,0,0,29.443,226,0,0.9,65.9,39
2016-02-22 09:40:00,42.6,38.2712698389892,42.6,70,33.5125336326754,7,16,270,0,0,29.442,230,0,1,66.1,38
2016-02-22 09:45:00,42.8,40.5530869300202,42.8,71,34.0588458247288,4,13,202.5,0,0,29.444,186,0,1,66.2,39
2016-02-22 09:50:00,43.1,40.113537188697,43.1,71,34.3470048549764,5,15,202.5,0,0,29.441,248,0,1.1,66.6,39
2016-02-22 09:55:00,43.5,41.361699846779,43.5,70,34.3755769503172,4,12,202.5,0,0,29.443,286,0,1.1,66.9,38
2016-02-22 10:00:00,43.7,41.5927321087101,43.7,69,34.2068881942816,4,15,202.5,0,0,29.444,290,0.004,1.2,67,37
2016-02-22 10:05:00,43.6,39.4764189192317,43.6,70,34.471466119625,7,16,247.5,0,0,29.442,297,0,1.2,67.2,37
2016-02-22 10:10:00,44.3,44.3,44.3,68,34.4151473190601,3,10,180,0,0,29.447,282,0,1.3,67.2,36
2016-02-22 10:15:00,44.4,40.9982932741011,44.4,68,34.5107057834394,6,12,292.5,0,0,29.448,315,0,1.3,67.4,36
2016-02-22 10:20:00,44.2,40.7601072805974,44.2,68,34.319587879578,6,20,292.5,0,0,29.454,183,0,1.1,67.5,35
2016-02-22 10:25:00,44,40.5219212870937,44,68,34.1284660752454,6,18,270,0,0,29.452,253,0,1.2,67.5,34
2016-02-22 10:30:00,44.4,40.9982932741011,44.4,68,34.5107057834394,6,18,247.5,0,0,29.46,356,0,1.3,67.5,34
2016-02-22 10:35:00,44.6,40.6815679994741,44.6,67,34.3304501207313,7,21,270,0,0,29.46,282,0,1.4,67.5,34
2016-02-22 10:40:00,44.7,41.3555722643568,44.7,68,34.7973753261093,6,21,292.5,0,0,29.461,422,0,1.4,67.5,33
2016-02-22 10:45:00,45,41.7128512546124,45,67,34.7120070783184,6,12,270,0,0,29.462,325,0,1.3,67.7,34
2016-02-22 10:50:00,44.8,39.9928403646309,44.8,66,34.1445971280073,9,19,270,0,0,29.464,180,0,1.1,68,34
2016-02-22 10:55:00,44.6,40.6815679994741,44.6,67,34.3304501207313,7,13,247.5,0,0,29.469,189,0,1.3,68,33
2016-02-22 11:00:00,44.8,40.9225978155226,44.8,67,34.5212306192545,7,16,270,0,0,29.466,207,0.006,1.4,68.2,34
2016-02-22 11:05:00,44.9,40.5550199176525,44.9,66,34.2398189646348,8,20,247.5,0,0,29.472,187,0,1.1,68.4,33
2016-02-22 11:10:00,44.7,40.3114693341795,44.7,67,34.4258408749333,8,22,247.5,0,0,29.473,115,0,1,68.5,33
2016-02-22 11:15:00,44.5,40.5610530914499,44.5,67,34.2350583566324,7,14,225,0,0,29.47,149,0,0.9,68.5,33
2016-02-22 11:20:00,44.4,40.9982932741011,44.4,68,34.5107057834394,6,13,247.5,0,0,29.472,150,0,0.9,68.5,33
2016-02-22 11:25:00,44.5,41.7579195314474,44.5,68,34.6062632727307,5,11,292.5,0,0,29.473,129,0,0.8,68.7,33
2016-02-22 11:30:00,44.6,41.8753754130725,44.6,68,34.7018197869491,5,12,225,0,0,29.474,110,0,0.8,68.9,33
2016-02-22 11:35:00,44.5,41.117386270853,44.5,68,34.6062632727307,6,12,292.5,0,0,29.474,117,0,0.8,68.9,33
2016-02-22 11:40:00,44.7,42.7478934183655,44.7,69,35.1641138850832,4,12,225,0,0,29.475,104,0,0.6,69,33
2016-02-22 11:45:00,44.7,41.9928312946975,44.7,68,34.7973753261093,5,14,270,0,0,29.476,110,0,0.7,69.2,33
2016-02-22 11:50:00,44.8,42.1102871763225,44.8,68,34.8929298902264,5,9,292.5,0,0,29.479,97,0,0.7,69.2,32
2016-02-22 11:55:00,44.6,41.2364792676049,44.6,68,34.7018197869491,6,19,315,0,0,29.476,75,0,0.6,69.2,32
2016-02-22 12:00:00,44.5,41.7579195314474,44.5,68,34.6062632727307,5,10,270,0,0,29.477,70,0.003,0.6,69.2,33
2016-02-22 12:05:00,44.5,41.7579195314474,44.5,69,34.9726762716286,5,10,225,0,0,29.471,83,0,0.7,69.4,33
2016-02-22 12:10:00,44.6,41.8753754130725,44.6,69,35.0683955486292,5,15,247.5,0,0,29.472,104,0,0.9,69.6,33
2016-02-22 12:15:00,44.7,41.3555722643568,44.7,69,35.1641138850832,6,16,315,0,0,29.475,163,0,1.2,69.7,32
2016-02-22 12:20:00,45,41.7128512546124,45,68,35.0840360933908,6,12,247.5,0,0,29.473,184,0,1.1,69.7,32
2016-02-22 12:25:00,45,41.7128512546124,45,68,35.0840360933908,6,15,225,0,0,29.474,109,0,0.7,69.7,32
2016-02-22 12:30:00,45,41.7128512546124,45,68,35.0840360933908,6,14,315,0,0,29.473,80,0,0.6,69.7,32
2016-02-22 12:35:00,44.8,41.4746652611086,44.8,68,34.8929298902264,6,14,292.5,0,0,29.47,66,0,0.6,69.7,32
2016-02-22 12:40:00,44.7,40.8020829074984,44.7,69,35.1641138850832,7,13,270,0,0,29.466,102,0,0.8,69.7,33
2016-02-22 12:45:00,44.7,42.7478934183655,44.7,70,35.5261871569381,4,12,247.5,0,0,29.464,105,0,1.1,69.7,33
2016-02-22 12:50:00,44.7,41.3555722643568,44.7,69,35.1641138850832,6,10,292.5,0,0,29.466,154,0,1.1,69.9,33
2016-02-22 12:55:00,45,41.1636276315711,45,70,35.8138193150316,7,19,225,0,0,29.468,162,0,0.9,69.9,32
2016-02-22 13:00:00,44.2,40.1995083673772,44.2,73,36.1038811402779,7,11,315,0,0,29.471,202,0.003,1.1,69.9,33
2016-02-22 13:05:00,43.9,40.4028282903418,43.9,75,36.4975154310288,6,12,315,0,0,29.47,181,0,1.1,69.9,33
2016-02-22 13:10:00,43.7,39.5969338272559,43.7,75,36.3041904850578,7,13,247.5,0,0,29.469,97,0,0.9,70.1,33
2016-02-22 13:15:00,43.3,39.6882703098305,43.3,76,36.2519744074351,6,15,247.5,0,0,29.474,97,0,1,70.1,33
2016-02-22 13:20:00,43.2,39.5691773130787,43.2,77,36.4855890404867,6,12,225,0,0,29.47,99,0,1.1,70.2,33
2016-02-22 13:25:00,43.1,39.4500843163268,43.1,77,36.3886238552311,6,15,270,0,0,29.471,108,0,1,70.2,33
2016-02-22 13:30:00,43.1,39.4500843163268,43.1,77,36.3886238552311,6,18,225,0,0,29.469,251,0,1.3,70.2,33
2016-02-22 13:35:00,44,41.1706401233223,44,77,37.2612862062931,5,11,247.5,0,0,29.465,422,0,1.6,70.2,34
2016-02-22 13:40:00,44.6,41.2364792676049,44.6,75,37.1741294324319,6,16,225,0,0,29.467,402,0,1.5,70.2,34
2016-02-22 13:45:00,45.3,41.5251723556438,45.3,73,37.1637296502392,7,14,270,0,0,29.47,383,0,1.5,70.2,34
2016-02-22 13:50:00,45.1,42.4626548211976,45.1,72,36.6216066056173,5,11,247.5,0,0,29.469,175,0,1.2,70.4,34
2016-02-22 13:55:00,45,45,45,72,36.5254146431167,2,11,157.5,0,0,29.471,113,0,1,70.4,35
2016-02-22 14:00:00,44.9,41.5937582578605,44.9,72,36.4292218417595,6,13,270,0,0,29.472,124,0.004,1,70.6,34
2016-02-22 14:05:00,44.7,40.8020829074984,44.7,73,36.5856425471449,7,15,270,0,0,29.468,178,0,1.1,70.4,34
2016-02-22 14:10:00,45,40.6767952093889,45,71,36.1718296752119,8,15,270,0,0,29.464,169,0,1.1,70.4,33
2016-02-22 14:15:00,45,41.1636276315711,45,71,36.1718296752119,7,15,247.5,0,0,29.467,212,0,1.1,70.2,35
2016-02-22 14:20:00,45.7,42.0072319877408,45.7,70,36.4849292972303,7,15,270,0,0,29.464,445,0,1.2,70.2,34
2016-02-22 14:25:00,45.6,41.8867170797166,45.6,70,36.3890591613736,7,14,270,0,0,29.463,308,0,1.2,70.1,35
2016-02-22 14:30:00,45.8,41.6509975432808,45.8,69,36.2169535139631,8,21,270,0,0,29.469,279,0,1.1,70.1,35
2016-02-22 14:35:00,45.5,41.7662021716923,45.5,69,35.9298267186993,7,18,292.5,0,0,29.469,107,0,0.8,69.9,35
2016-02-22 14:40:00,45.7,42.5465022318755,45.7,70,36.4849292972303,6,12,292.5,0,0,29.469,342,0,1.1,69.9,35
2016-02-22 14:45:00,46.6,44.224493045573,46.6,68,36.6127453289659,5,15,292.5,0,0,29.47,357,0,1,69.9,35
2016-02-22 14:50:00,46.8,44.4594048088231,46.8,68,36.8038164364858,5,16,270,0,0,29.472,361,0,1,70.1,35
2016-02-22 14:55:00,46.9,44.5768606904481,46.9,66,36.1440362659646,5,13,225,0,0,29.474,367,0,1.1,70.1,35
2016-02-22 15:00:00,46.5,43.4992462058905,46.5,67,36.1427017764817,6,15,270,0,0,29.473,312,0.006,1,68.2,31
2016-02-22 15:05:00,46.2,43.1419672156349,46.2,67,35.8565810112409,6,16,292.5,0,0,29.479,283,0,1,64.8,33
2016-02-22 15:10:00,46,44.2496031209176,46,69,36.4083666755478,4,14,202.5,0,0,29.478,289,0,0.9,62.5,35
2016-02-22 15:15:00,46,42.9037812221311,46,69,36.4083666755478,6,14,270,0,0,29.484,269,0,0.8,61,37
2016-02-22 15:20:00,45.9,42.2482618037893,45.9,69,36.3126605649387,7,16,292.5,0,0,29.481,282,0,0.8,59.6,39
2016-02-22 15:25:00,45.3,41.5251723556438,45.3,69,35.7384041531038,7,18,292.5,0,0,29.488,220,0,0.7,58.7,40
2016-02-22 15:30:00,45.1,41.2841425395953,45.1,70,35.9096948884389,7,16,247.5,0,0,29.488,216,0,0.7,57.7,41
2016-02-22 15:35:00,44.9,41.0431127235469,44.9,71,36.0757941161825,7,13,270,0,0,29.486,96,0,0.5,57.1,42
2016-02-22 15:40:00,44.5,40.0679187507065,44.5,71,35.6916431555507,8,21,270,0,0,29.483,182,0,0.5,56.7,43
2016-02-22 15:45:00,44.4,40.4405381834256,44.4,72,35.94824525174,7,14,270,0,0,29.483,179,0,0.7,56.4,44
2016-02-22 15:50:00,44.3,40.3200232754014,44.3,73,36.2002350329396,7,16,270,0,0,29.481,169,0,0.6,56.3,44
2016-02-22 15:55:00,44.5,42.5168611564344,44.5,73,36.3929404013104,4,12,247.5,0,0,29.478,154,0,0.6,56.5,45
2016-02-22 16:00:00,44.7,41.3555722643568,44.7,72,36.2368337224313,6,12,270,0,0,29.481,142,0.005,0.3,56.5,45
2016-02-22 16:05:00,44.5,40.5610530914499,44.5,72,36.0444422475449,7,13,292.5,0,0,29.486,130,0,0.2,56.7,44
2016-02-22 16:10:00,44.5,40.5610530914499,44.5,72,36.0444422475449,7,13,292.5,0,0,29.486,119,0,0,56.5,44
2016-02-22 16:15:00,44.5,41.117386270853,44.5,72,36.0444422475449,6,12,292.5,0,0,29.488,108,0,0.2,56.5,44
2016-02-22 16:20:00,44.5,40.5610530914499,44.5,72,36.0444422475449,7,12,270,0,0,29.494,96,0,0,57,45
2016-02-22 16:25:00,44.2,40.7601072805974,44.2,72,35.7558487433517,6,14,292.5,0,0,29.5,90,0,0,58.4,45
2016-02-22 16:30:00,44.3,42.2858288945033,44.3,73,36.2002350329396,4,10,270,0,0,29.494,88,0,0,59.7,44
2016-02-22 16:35:00,44.3,40.8792002773493,44.3,73,36.2002350329396,6,13,292.5,0,0,29.502,73,0,0,61,43
2016-02-22 16:40:00,44.1,40.6410142838455,44.1,73,36.0075264419517,6,16,270,0,0,29.495,62,0,0,61.9,42
2016-02-22 16:45:00,44,41.9392805016067,44,73,35.9111709379511,4,11,247.5,0,0,29.502,61,0,0,62.5,42
2016-02-22 16:50:00,43.9,41.8237643706412,43.9,74,36.1582018200032,4,7,270,0,0,29.504,56,0,0,63.3,41
2016-02-22 16:55:00,43.8,43.8,43.8,74,36.0616913611357,3,8,225,0,0,29.512,30,0,0,64,41
2016-02-22 17:00:00,43.7,40.8182724784472,43.7,74,35.9651801295552,5,15,270,0,0,29.51,19,0.002,0,64.6,40
2016-02-22 17:05:00,43.3,39.1148741951589,43.3,74,35.579127475917,7,14,270,0,0,29.506,17,0,0,65.1,39
2016-02-22 17:10:00,43.1,40.113537188697,43.1,74,35.3860965125782,5,11,270,0,0,29.508,13,0,0,65.4,39
2016-02-22 17:15:00,42.8,40.5530869300202,42.8,74,35.0965442717118,4,10,292.5,0,0,29.511,12,0,0,65.8,38
2016-02-22 17:20:00,42.7,40.4375707990546,42.7,75,35.3375213529339,4,8,247.5,0,0,29.517,9,0,0,66.1,38
2016-02-22 17:25:00,42.7,40.4375707990546,42.7,75,35.3375213529339,4,12,247.5,0,0,29.516,6,0,0,66.4,38
2016-02-22 17:30:00,42.5,42.5,42.5,75,35.1441786455795,2,9,225,0,0,29.515,4,0,0,66.7,38
2016-02-22 17:35:00,42.2,42.2,42.2,75,34.8541590336481,2,8,270,0,0,29.52,0,0,0,67,37
2016-02-22 17:40:00,42,42,42,76,34.9933068591528,0,2,0,0,0,29.521,0,0,0,67.4,37
2016-02-22 17:45:00,41.8,41.8,41.8,76,34.7996550825201,2,7,247.5,0,0,29.523,0,0,0,67.7,37
2016-02-22 17:50:00,41.8,41.8,41.8,76,34.7996550825201,2,7,247.5,0,0,29.525,0,0,0,68,37
2016-02-22 17:55:00,41.8,41.8,41.8,77,35.1280149761494,2,8,247.5,0,0,29.526,0,0,0,68.2,36
2016-02-22 18:00:00,41.7,39.2824094893992,41.7,77,35.031040333607,4,8,247.5,0,0,29.529,0,0.001,0,68.4,35
2016-02-22 18:05:00,41.6,41.6,41.6,77,34.9340650154911,3,9,292.5,0,0,29.53,0,0,0,68.5,34
2016-02-22 18:10:00,41.4,41.4,41.4,78,35.0641423844279,2,8,225,0,0,29.53,0,0,0,68.5,34
2016-02-22 18:15:00,41.2,41.2,41.2,78,34.8698950691485,2,6,270,0,0,29.533,0,0,0,68.7,34
2016-02-22 18:20:00,41.1,41.1,41.1,79,35.0927180719467,2,6,225,0,0,29.533,0,0,0,68.7,34
2016-02-22 18:25:00,41.1,41.1,41.1,79,35.0927180719467,0,5,0,0,0,29.534,0,0,0,68.7,34
2016-02-22 18:30:00,40.9,40.9,40.9,80,35.2142823718332,2,6,337.5,0,0,29.537,0,0,0,68.9,34
2016-02-22 18:35:00,40.6,40.6,40.6,80,34.922039685574,1,5,225,0,0,29.538,0,0,0,68.9,35
2016-02-22 18:40:00,40.4,40.4,40.4,80,34.7272083245237,0,2,0,0,0,29.538,0,0,0,69,35
2016-02-22 18:45:00,40.4,40.4,40.4,81,35.0391349351637,1,6,225,0,0,29.537,0,0,0,69,35
2016-02-22 18:50:00,40.4,40.4,40.4,81,35.0391349351637,3,7,247.5,0,0,29.534,0,0,0,69,34
2016-02-22 18:55:00,40.3,40.3,40.3,81,34.9415772071464,2,8,247.5,0,0,29.539,0,0,0,69,33
2016-02-22 19:00:00,40.3,40.3,40.3,82,35.2499806215139,1,5,315,0,0,29.542,0,0.001,0,69,35
2016-02-22 19:05:00,40.3,40.3,40.3,82,35.2499806215139,1,7,247.5,0,0,29.54,0,0,0,69.2,35
2016-02-22 19:10:00,40.4,40.4,40.4,82,35.3476780951543,2,6,247.5,0,0,29.539,0,0,0,69.4,35
2016-02-22 19:15:00,40.3,40.3,40.3,82,35.2499806215139,2,7,247.5,0,0,29.542,0,0,0,69.6,35
2016-02-22 19:20:00,40.3,40.3,40.3,83,35.5550795926271,1,7,247.5,0,0,29.542,0,0,0,69.6,35
2016-02-22 19:25:00,40.2,40.2,40.2,83,35.457243284203,1,6,247.5,0,0,29.545,0,0,0,69.7,35
2016-02-22 19:30:00,40.2,40.2,40.2,83,35.457243284203,1,5,247.5,0,0,29.545,0,0,0,69.7,35
2016-02-22 19:35:00,40.3,40.3,40.3,83,35.5550795926271,2,7,247.5,0,0,29.545,0,0,0,69.7,35
2016-02-22 19:40:00,40.3,40.3,40.3,84,35.856949006435,3,8,270,0,0,29.543,0,0,0,69.7,35
2016-02-22 19:45:00,40.3,40.3,40.3,84,35.856949006435,2,9,270,0,0,29.543,0,0,0,69.6,35
2016-02-22 19:50:00,40.2,40.2,40.2,84,35.7589757497696,2,6,270,0,0,29.542,0,0,0,69.6,35
2016-02-22 19:55:00,40.2,37.549667524916,40.2,84,35.7589757497696,4,8,247.5,0,0,29.545,0,0,0,69.6,35